Miscellaneous Local Product
Issued by NWS Hastings, NE

Home | Current Version | Previous Version | Graphics & Text | Print | Product List | Glossary On
Versions: 1 2 3 4 5 6 7 8 9 10 11 12 13 14 15 16 17 18 19 20 21 22 23 24 25 26 27 28 29 30 31 32 33 34 35 36 37 38 39 40 41 42 43 44 45 46 47 48 49 50
036
AXUS43 KGID 031702
MISGRI

GID CWA HOURLY WEATHER ROUNDUP
NATIONAL WEATHER SERVICE HASTINGS NE
1200 PM CDT TUE MAY 03 2016

NOTE: "FAIR" INDICATES FEW OR NO CLOUDS BELOW 12,000 FEET WITH NO
SIGNIFICANT WEATHER AND/OR OBSTRUCTIONS TO VISIBILITY.

...SOUTH CENTRAL NEBRASKA...

CITY           SKY/WX    TMP DP  RH WIND       PRES   REMARKS
GRAND ISLAND   SUNNY     61  37  41 CALM      30.08S
HASTINGS       SUNNY     62  40  44 MISG      30.07S
KEARNEY        SUNNY     61  39  44 CALM      30.09R
ORD            SUNNY     63  43  48 VRB5      30.07S
YORK           SUNNY     63  39  42 CALM      30.07F
AURORA         SUNNY     62  38  41 E5        30.08S
LEXINGTON      SUNNY     61  44  54 NE6       30.10R
HOLDREGE       SUNNY     59  40  49 CALM      30.08R
HEBRON         SUNNY     64  40  41 E6        30.07S

...NEBRASKA PANHANDLE...

CITY           SKY/WX    TMP DP  RH WIND       PRES   REMARKS
CHADRON        SUNNY     66  33  29 N14       30.14R
ALLIANCE       SUNNY     60  38  43 N13       30.13S
SCOTTSBLUFF    SUNNY     65  38  36 NW15G21   30.16R
SIDNEY         SUNNY     59  36  42 N14G20    30.17S

...WESTERN AND NORTH CENTRAL NEBRASKA...

CITY           SKY/WX    TMP DP  RH WIND       PRES   REMARKS
VALENTINE      SUNNY     62  40  44 NW9       30.09S
AINSWORTH      SUNNY     60  41  50 W9        30.09S
ONEILL         SUNNY     60  43  53 W8        30.07F
BROKEN BOW     SUNNY     60  41  49 VRB3      30.09R
IMPERIAL       SUNNY     56  44  64 N12       30.14R
NORTH PLATTE   SUNNY     58  47  66 W6        30.12R
MCCOOK         MOSUNNY   57  44  62 NW8       30.11R

...EASTERN NEBRASKA...

CITY           SKY/WX    TMP DP  RH WIND       PRES   REMARKS
NORFOLK        SUNNY     64  41  42 NW9G18    30.04F
SO SIOUX CITY  SUNNY     65  47  52 W10       30.02F
TEKAMAH        SUNNY     65  45  48 W13       30.03F
COLUMBUS       SUNNY     64  39  39 W8        30.07F
ALBION         MOSUNNY   64  39  40 W8        30.06S
OMAHA EPPLEY   MOSUNNY   67  39  35 NW14      30.04F
OFFUTT AFB     SUNNY     64  40  40 VRB2      30.04F
MILLARD        SUNNY     63  40  43 NW7       30.05F
LINCOLN        SUNNY     66  39  37 W6        30.08R
NEBRASKA CITY  MOSUNNY   63  40  43 W6        30.06F
BEATRICE       SUNNY     63  40  42 NW3       30.07S
FALLS CITY     PTSUNNY   65  43  44 SW8       30.06F

...NORTHERN KANSAS...

CITY           SKY/WX    TMP DP  RH WIND       PRES   REMARKS
GOODLAND       PTSUNNY   56  39  53 N15       30.13R
HILL CITY      SUNNY     61  43  51 VRB6      30.10R
HAYS           MOSUNNY   63  41  45 N8        30.08R
RUSSELL        SUNNY     64  42  44 CALM      30.05R
CONCORDIA      SUNNY     65  41  41 E9        30.05S
SALINA         SUNNY     66  46  48 SW9       30.06R
TOPEKA         MOSUNNY   65  42  43 W7        30.07F



USA.gov is the U.S. government's official web portal to all federal, state and local government web resources and services.